Find Starlink 35942

NORAD ID: 66926 Int'l Des: 2025-286 Owner: SPXS Country: US Constellation: starlink operational
LEOCIRCULAR

Live Position

Loading 3D Globe...

About Starlink 35942

Description loading...

Upcoming Passes

Passes for default location (London). Set your location on the main map for personalized predictions.

Altitude History

Loading altitude history...

Two-Line Element Set

1 66926U 25286B 26106.60569156 .00008827 00000-0 30978-3 0 9990
2 66926 53.1621 182.2107 0000819 77.7981 282.3111 15.30200684 21221
Epoch: Apr 16, 2026 • Age: 26 hours

Current Status

Altitude 475.3 km
Velocity 7.63 km/s
Sub-Earth Point 9.70°N, 101.13°W
Launch Date Dec 7, 2025
Age 0.3 years
Type internet

Technical Details

Classification Payload
Mass 575.00 kg
Dry Mass 530.00 kg
Total Mass 575.00 kg
Length 0.30 m
Diameter 4.10 m
Span 29.00 m
Shape Box + pan
Manufacturer SPXS
Bus Type Starlink V2MO
Phase Status In Orbit
Owner/State SPXS/US

Most Searched